Date,TemperatureHighF,TemperatureAvgF,TemperatureLowF,DewpointHighF,DewpointAvgF,DewpointLowF,HumidityHigh,HumidityAvg,HumidityLow,PressureMaxIn,PressureMinIn,WindSpeedMaxMPH,WindSpeedAvgMPH,GustSpeedMaxMPH,PrecipitationSumIn
2013-1-1,13.1,7.5,1.4,6.0,2.6,-2.0,88,80,69,30.33,30.23,5,2,10,0.00
2013-1-2,25.1,19.5,10.0,21.0,13.4,4.0,87,77,61,30.26,30.13,8,2,9,0.00
2013-1-3,24.3,21.7,13.2,22.0,18.1,10.0,92,85,83,30.29,30.12,11,4,15,0.00
2013-1-4,27.3,19.6,10.5,19.0,14.6,6.0,88,81,72,30.27,30.14,16,6,19,0.00
2013-1-5,35.6,26.9,13.4,32.0,23.6,11.0,94,88,74,30.30,29.93,11,3,14,0.13
2013-1-6,33.8,25.9,18.0,32.0,22.3,15.0,92,86,79,30.36,29.92,11,4,17,0.14
2013-1-7,37.7,26.6,13.7,28.0,20.2,11.0,89,77,60,30.35,30.11,11,3,20,0.02
2013-1-8,40.5,33.7,22.2,31.0,28.1,20.0,94,80,67,30.17,29.99,7,2,12,0.14
2013-1-9,39.8,34.8,27.2,32.0,27.5,22.0,86,75,62,30.51,29.96,11,5,24,0.03
2013-1-10,39.7,31.0,18.6,35.0,27.2,17.0,96,86,71,30.56,29.95,11,4,15,0.46
2013-1-11,50.8,42.4,35.8,47.0,41.4,35.0,98,96,86,29.95,29.66,13,3,15,0.06
2013-1-12,51.6,38.6,24.6,47.0,33.1,21.0,91,80,71,30.03,29.66,12,5,21,0.06
2013-1-13,24.4,18.0,12.4,22.0,13.0,6.0,90,81,75,30.27,29.93,10,4,17,0.00
2013-1-14,22.0,14.9,8.7,11.0,8.1,5.0,84,74,58,30.53,30.28,7,3,13,0.00
2013-1-15,29.2,20.5,10.1,17.0,13.1,7.0,92,74,54,30.51,30.16,6,2,10,0.00
2013-1-16,32.1,25.7,18.5,29.0,18.9,11.0,88,75,63,30.16,29.82,14,4,20,0.00
2013-1-17,27.7,19.5,13.9,19.0,9.0,2.0,80,64,49,30.47,30.12,7,3,15,0.00
2013-1-18,40.9,28.4,10.0,33.0,22.0,6.0,89,77,67,30.50,29.88,15,4,23,0.05
2013-1-19,42.9,36.4,16.1,35.0,28.6,4.0,83,74,42,29.94,29.68,17,5,32,0.05
2013-1-20,15.0,9.9,6.0,5.0,0.2,-1.0,73,65,53,30.35,29.96,13,5,33,0.00
2013-1-21,9.3,2.7,-3.7,4.0,-5.2,-11.0,83,70,61,30.37,30.20,13,5,24,0.00
2013-1-22,5.6,-0.8,-7.2,-4.0,-8.7,-14.0,76,69,63,30.47,30.37,12,4,15,0.00
2013-1-23,16.2,10.3,1.5,13.0,4.2,-5.0,87,76,66,30.48,30.18,12,3,17,0.00
2013-1-24,17.7,8.9,-0.6,9.0,0.6,-6.0,78,69,56,30.75,30.46,7,2,13,0.00
2013-1-25,23.3,18.7,15.5,19.0,13.0,6.0,88,78,60,30.45,30.01,7,3,14,0.00
2013-1-26,24.3,16.2,7.3,14.0,8.8,4.0,85,73,55,30.47,30.25,6,2,11,0.00
2013-1-27,32.1,27.0,22.7,31.0,22.7,13.0,96,83,67,30.44,29.94,13,4,16,0.00
2013-1-28,40.0,35.4,32.2,37.0,33.3,31.0,97,92,78,30.01,29.84,7,2,12,0.21
2013-1-29,59.0,43.8,35.4,57.0,42.8,34.0,98,96,93,29.87,29.48,9,2,15,0.99
2013-1-30,36.1,27.9,15.1,35.0,26.3,12.0,97,93,86,29.62,29.31,12,5,20,0.07
2013-1-31,15.7,10.1,1.7,12.0,5.2,-3.0,88,80,71,30.21,29.63,13,6,19,0.07
2013-2-1,6.2,1.0,-3.5,3.0,-4.4,-8.0,87,78,69,30.40,30.21,13,5,17,0.00
2013-2-2,11.0,7.0,0.3,6.0,2.2,-3.0,90,81,69,30.24,30.12,5,2,10,0.00
2013-2-3,17.2,11.3,2.0,12.0,6.4,-2.0,89,81,68,30.13,30.04,12,3,16,0.00
2013-2-4,17.6,12.3,4.4,13.0,8.2,1.0,95,83,68,30.10,30.01,6,2,9,0.00
2013-2-5,26.1,17.1,-0.6,23.0,13.7,-4.0,92,86,78,30.18,29.87,9,2,14,0.00
2013-2-6,32.7,21.0,2.3,29.0,16.1,0.0,92,82,68,30.32,30.16,5,1,9,0.07
2013-2-7,32.8,30.7,21.4,32.0,29.0,20.0,96,93,87,30.18,29.96,6,2,11,0.08
2013-2-8,22.9,18.3,4.6,20.0,15.9,2.0,94,90,83,30.48,30.09,0,0,0,0.08
2013-2-9,27.1,17.0,4.2,24.0,14.8,2.0,94,91,87,30.49,30.18,5,1,9,0.00
2013-2-10,43.4,32.8,15.3,42.0,31.5,13.0,97,95,84,30.18,29.47,15,4,22,0.97
2013-2-11,40.2,31.1,25.8,35.0,26.6,21.0,92,83,77,30.02,29.46,15,7,26,0.97
2013-2-12,26.2,23.5,20.2,23.0,18.9,16.0,87,83,74,30.14,29.94,9,4,13,0.00
2013-2-13,37.7,31.0,21.3,30.0,26.3,19.0,93,83,71,29.94,29.75,7,3,11,0.00
2013-2-14,35.2,32.2,27.4,33.0,28.8,23.0,94,87,79,30.02,29.62,9,3,24,0.02
2013-2-15,27.3,19.4,12.3,25.0,11.5,5.0,91,72,57,30.26,30.03,12,4,14,0.02
2013-2-16,15.6,10.4,5.3,5.0,2.0,-1.0,82,69,53,30.28,30.21,9,2,14,0.00
2013-2-17,24.9,14.2,-1.1,14.0,3.7,-5.0,87,65,45,30.31,30.07,8,2,14,0.00
2013-2-18,46.0,35.2,25.0,40.0,28.9,14.0,95,78,63,30.07,29.46,10,4,16,0.39
2013-2-19,28.3,13.5,6.7,27.0,10.5,2.0,95,88,79,30.23,29.53,12,6,20,0.39
2013-2-20,19.1,10.8,4.4,12.0,5.8,0.0,88,80,73,30.47,30.24,8,3,15,0.00
2013-2-21,25.7,19.1,10.2,23.0,15.9,7.0,92,87,80,30.52,30.16,15,5,27,0.00
2013-2-22,30.2,26.9,23.5,28.0,25.2,21.0,95,93,86,30.16,29.84,14,5,21,0.05
2013-2-23,27.7,24.3,19.5,25.0,20.6,16.0,92,86,75,29.99,29.90,8,4,13,0.02
2013-2-24,35.4,24.4,18.2,26.0,19.8,16.0,92,83,66,30.21,30.00,7,2,9,0.03
2013-2-25,38.9,26.5,14.6,28.0,21.3,13.0,94,82,60,30.25,30.11,7,1,8,0.01
2013-2-26,33.0,31.5,30.2,31.0,28.1,25.0,96,87,78,30.11,29.66,21,9,26,0.01
2013-2-27,32.4,30.5,28.3,31.0,29.7,27.0,97,96,95,29.80,29.63,16,5,18,0.15
2013-2-28,31.9,29.2,23.6,30.0,26.5,20.0,96,89,83,30.18,29.80,13,5,20,0.04
2013-3-1,23.7,22.6,20.3,20.0,18.9,15.0,88,85,81,30.31,30.16,13,4,17,0.04
2013-3-2,23.3,17.5,7.2,16.0,12.4,5.0,89,80,72,30.30,30.25,8,2,10,0.00
2013-3-3,26.8,14.6,1.4,14.0,5.4,-1.0,100,70,33,30.25,30.17,8,1,10,0.00
2013-3-4,31.6,20.7,3.8,25.0,15.7,0.0,89,81,67,30.23,30.13,12,4,16,0.01
2013-3-5,30.6,28.2,25.0,27.0,25.0,23.0,95,88,75,30.13,29.95,13,6,21,0.01
2013-3-6,31.8,28.5,25.2,28.0,25.2,23.0,92,87,82,30.37,30.12,8,3,13,0.05
2013-3-7,34.4,26.6,18.6,24.0,20.2,15.0,88,77,59,30.50,30.36,6,2,8,0.05
2013-3-8,39.1,27.3,12.4,29.0,22.0,10.0,93,81,64,30.55,30.37,7,2,13,0.00
2013-3-9,38.7,34.4,29.4,34.0,29.8,24.0,92,83,77,30.37,29.87,9,4,13,0.08
2013-3-10,42.0,37.8,35.7,41.0,34.4,-99.9,100,93,92,29.87,29.67,10,-22,22,0.46
2013-3-11,38.6,33.5,29.6,38.0,32.7,28.0,98,97,92,29.79,29.57,10,3,13,0.05
2013-3-12,31.3,27.9,25.9,27.0,23.7,19.0,93,84,69,30.04,29.79,11,4,16,0.03
2013-3-13,30.1,24.1,18.6,21.0,13.6,10.0,88,66,44,30.37,30.05,13,5,18,0.03
2013-3-14,34.8,26.5,16.1,27.0,18.1,10.0,92,72,47,30.38,30.14,5,1,11,0.00
2013-3-15,36.4,30.8,27.5,32.0,28.4,25.0,100,91,83,30.13,29.88,12,4,17,0.04
2013-3-16,30.4,26.7,22.9,26.0,22.2,19.0,93,83,69,30.20,29.87,14,4,19,0.04
2013-3-17,27.8,23.8,17.5,23.0,16.0,10.0,82,72,65,30.33,30.11,14,5,17,0.00
2013-3-18,32.5,27.6,17.7,31.0,24.5,12.0,94,88,77,30.10,29.63,13,6,23,0.13
2013-3-19,28.7,20.7,12.6,13.0,11.0,8.0,82,67,49,30.11,29.76,17,8,25,0.00
2013-3-20,19.1,14.3,9.4,9.0,4.4,0.0,69,65,59,30.14,30.09,15,6,21,0.00
2013-3-21,26.6,17.5,8.2,15.0,8.6,2.0,78,68,57,30.14,30.09,8,3,16,0.00
2013-3-22,33.1,22.8,12.8,18.0,13.2,8.0,82,68,52,30.16,30.09,5,2,9,0.00
2013-3-23,37.8,27.1,16.6,24.0,19.5,13.0,89,74,50,30.22,30.12,9,2,11,0.00
2013-3-24,33.0,30.4,29.1,29.0,25.7,22.0,93,83,74,30.13,29.82,15,7,21,0.01
2013-3-25,32.6,29.4,25.4,27.0,24.3,21.0,89,81,72,30.16,29.85,13,4,18,0.01
2013-3-26,38.4,33.5,28.7,30.0,26.3,24.0,83,75,66,30.30,30.15,9,3,13,0.00
2013-3-27,41.1,35.2,27.2,26.0,23.3,20.0,78,63,48,30.36,30.30,9,2,13,0.00
2013-3-28,43.5,34.5,26.1,25.0,22.0,20.0,79,62,41,30.40,30.35,7,2,10,0.00
2013-3-29,47.3,35.4,23.1,27.0,22.7,19.0,87,63,35,30.39,30.30,6,1,9,0.00
2013-3-30,53.5,42.8,25.5,41.0,32.2,21.0,90,68,51,30.30,29.86,7,2,13,0.01
2013-3-31,47.6,39.5,31.4,41.0,34.9,21.0,94,84,59,29.93,29.73,10,4,21,0.01
2013-4-1,34.6,29.7,24.5,21.0,16.5,13.0,72,59,43,30.24,29.94,10,4,17,0.00
2013-4-2,38.4,30.2,22.9,18.0,15.4,13.0,73,56,36,30.38,30.24,7,3,14,0.00
2013-4-3,42.4,32.0,21.0,20.0,16.3,10.0,82,55,28,30.53,30.36,9,2,12,0.00
2013-4-4,55.0,43.2,29.5,36.0,25.7,10.0,67,51,42,30.36,30.00,10,3,16,0.00
2013-4-5,42.6,36.6,28.4,29.0,26.4,20.0,87,68,53,30.29,30.07,13,4,15,0.00
2013-4-6,61.1,47.2,33.6,49.0,35.1,21.0,90,64,46,30.22,29.61,11,5,16,0.10
2013-4-7,53.0,39.4,34.6,49.0,34.0,31.0,87,81,60,30.02,29.58,14,5,17,0.00
2013-4-8,48.1,40.8,34.7,45.0,38.0,31.0,96,90,83,30.05,29.66,10,3,16,0.63
2013-4-9,40.6,36.2,35.7,39.0,31.6,-99.9,97,92,93,30.08,29.94,18,-30,25,0.81
2013-4-10,37.1,33.7,32.5,37.0,27.1,-99.9,100,90,93,30.21,29.91,18,-44,24,0.57
2013-4-11,36.5,35.4,34.1,36.0,34.3,32.0,97,95,93,30.01,29.65,25,10,42,0.24
2013-4-12,40.3,33.8,34.6,38.0,26.1,-99.9,97,89,86,29.84,29.58,12,-63,15,0.06
2013-4-13,37.3,32.6,31.0,30.0,20.2,-99.9,88,72,64,30.06,29.84,11,-59,21,0.00
2013-4-14,52.9,36.0,29.1,47.0,28.2,-99.9,94,83,78,30.08,29.68,16,-40,24,0.05
2013-4-15,60.8,51.4,40.2,52.0,46.2,36.0,98,84,50,29.98,29.67,9,4,21,0.26
2013-4-16,51.8,38.8,33.5,38.0,21.3,-99.9,94,67,54,30.29,29.99,8,-100,13,0.26
2013-4-18,-200.0,0.0,200.0,-99.9,-99.9,-99.9,0,0,100,29.49,29.41,0,-999,0,0.17
2013-4-19,38.0,24.5,30.2,31.0,-10.0,-99.9,85,54,67,29.95,29.41,15,-293,23,0.02
2013-4-20,42.3,33.2,26.0,24.0,19.7,14.0,77,60,33,30.48,29.96,15,4,18,0.02
2013-4-21,46.1,38.5,26.8,31.0,25.2,21.0,92,61,42,30.59,30.35,15,5,18,0.00
2013-4-22,65.5,51.5,39.6,40.0,34.6,31.0,73,54,35,30.35,30.07,11,3,15,0.00
2013-4-23,52.5,43.3,36.0,48.0,38.7,32.0,94,85,56,30.06,29.91,8,2,14,0.29
2013-4-24,51.5,42.5,33.8,32.0,27.5,24.0,82,58,36,30.09,30.00,11,3,14,0.29
2013-4-25,49.5,43.6,36.1,37.0,32.0,29.0,92,66,46,30.34,30.02,10,4,17,0.06
2013-4-26,67.4,54.0,38.5,47.0,37.9,28.0,70,56,43,30.35,30.20,11,4,20,0.06
2013-4-27,65.8,55.9,48.4,48.0,41.6,-99.9,85,65,46,30.27,30.04,7,-9,11,0.00
2013-4-28,69.4,56.4,46.2,50.0,45.3,40.0,89,68,44,30.03,29.82,7,2,10,0.00
2013-4-29,69.9,60.6,48.6,56.0,52.1,46.0,94,75,52,29.89,29.76,8,2,12,0.00
2013-4-30,85.1,71.8,61.2,62.0,56.5,50.0,86,62,30,29.84,29.72,10,4,17,0.00
2013-5-1,82.6,70.1,48.7,59.0,53.6,40.0,82,58,30,30.22,29.93,9,4,16,0.00
2013-5-2,56.4,45.6,38.3,48.0,39.8,35.0,94,81,63,30.28,30.20,12,5,20,1.09
2013-5-3,48.5,41.5,36.7,47.0,37.6,-99.9,96,92,87,30.24,30.05,10,-18,16,0.17
2013-5-4,67.8,55.7,45.3,50.0,46.0,42.0,92,72,49,30.10,30.04,11,4,17,0.21
2013-5-5,68.8,57.3,43.6,48.0,43.6,39.0,92,62,42,30.10,30.03,11,3,17,0.00
2013-5-6,72.0,60.1,44.4,46.0,38.6,32.0,80,48,23,30.09,30.01,9,2,15,0.00
2013-5-7,74.1,62.6,44.0,49.0,41.7,36.0,81,49,30,30.09,30.01,8,2,14,0.00
2013-5-8,78.7,63.3,43.8,50.0,44.2,40.0,88,55,26,30.06,29.97,6,1,12,0.00
2013-5-13,47.0,39.2,46.0,33.0,12.2,-99.9,62,50,57,30.09,0.00,8,-150,12,0.00
2013-5-14,80.1,66.0,47.3,60.0,48.9,33.0,67,55,38,29.99,29.56,15,3,29,0.00
2013-5-15,77.7,70.0,52.7,61.0,49.3,43.0,76,49,32,29.83,29.56,7,2,15,0.00
2013-5-16,78.5,62.8,51.1,54.0,43.8,29.0,80,52,34,30.01,29.83,10,2,17,0.00
2013-5-17,58.5,53.7,47.0,50.0,43.5,34.0,93,70,42,30.14,30.00,9,3,17,0.72
2013-5-18,75.3,61.8,50.3,62.0,53.3,45.0,89,74,61,30.11,29.97,6,2,12,0.72
2013-5-19,81.3,69.5,53.9,67.0,61.2,52.0,95,76,60,29.98,29.69,13,2,18,0.00
2013-5-20,84.0,74.9,65.5,64.0,60.7,57.0,86,63,42,29.74,29.66,7,2,17,0.00
2013-5-21,78.1,69.6,60.1,65.0,60.2,57.0,93,74,51,29.69,29.61,8,2,14,0.11
2013-5-22,65.5,59.3,53.3,64.0,57.6,52.0,97,94,86,29.77,29.63,9,1,10,0.81
2013-5-23,54.0,47.9,38.0,53.0,43.9,35.0,97,86,71,30.36,29.78,11,4,18,0.01
2013-5-24,59.3,46.4,35.8,42.0,35.7,32.0,91,68,49,30.50,30.36,7,2,12,0.01
2013-5-25,58.1,50.0,39.9,41.0,36.1,32.0,87,61,40,30.45,30.34,7,2,11,0.00
2013-5-26,64.7,51.5,35.9,45.0,39.9,33.0,91,67,45,30.35,30.21,9,2,15,0.00
2013-5-27,54.2,50.9,48.9,51.0,46.7,39.0,97,87,66,30.22,29.95,10,4,16,0.03
2013-5-28,50.0,14.3,49.1,49.0,-57.2,-99.9,97,28,96,29.94,29.75,7,-711,9,0.02
2013-5-29,80.5,53.7,64.5,69.0,21.4,-99.9,98,57,60,29.92,29.81,9,-263,13,0.02
2013-5-30,82.6,72.2,63.1,72.0,62.8,-99.9,94,77,61,29.88,29.73,9,-23,16,0.26
2013-5-31,74.5,67.8,61.6,67.0,63.1,61.0,96,85,66,29.83,29.70,6,1,14,0.22
2013-6-1,75.6,69.0,61.3,66.0,64.0,58.0,96,84,68,29.70,29.60,5,1,12,0.12
2013-6-2,61.1,53.9,47.0,58.0,47.7,43.0,92,80,61,30.05,29.66,7,2,18,0.12
2013-6-3,67.4,55.6,40.0,50.0,43.7,38.0,97,68,44,30.13,30.04,6,1,9,0.00
2013-6-4,69.2,59.2,51.4,51.0,45.1,38.0,83,61,47,30.20,30.11,7,2,12,0.00
2013-6-5,61.7,54.3,50.1,52.0,48.7,45.0,92,82,59,30.17,30.01,7,2,13,0.06
2013-6-6,57.9,53.9,50.4,54.0,50.4,47.0,95,88,75,30.01,29.95,5,1,8,0.01
2013-6-7,68.5,59.0,49.4,53.0,47.0,43.0,94,68,40,30.02,29.94,8,1,12,0.10
2013-6-8,69.8,58.0,46.3,53.0,48.6,44.0,94,73,50,30.05,29.95,6,1,9,0.00
2013-6-9,76.1,63.1,52.8,62.0,55.4,49.0,88,77,60,30.05,29.84,8,2,16,0.00
2013-6-10,75.4,66.1,58.2,67.0,61.8,57.0,95,86,68,29.87,29.78,6,1,8,0.00
2013-6-11,82.9,70.6,56.8,67.0,62.4,56.0,97,77,54,29.92,29.79,3,1,8,0.00
2013-6-12,73.5,67.3,59.7,66.0,63.6,59.0,96,88,76,29.92,29.63,7,2,18,1.16
2013-6-13,73.5,64.2,53.3,61.0,56.2,50.0,96,76,58,30.10,29.70,12,3,19,1.16
2013-6-14,73.8,63.1,52.7,58.0,51.7,46.0,90,68,50,30.16,30.04,5,1,10,0.00
2013-6-15,78.6,65.8,54.4,70.0,60.9,48.0,95,84,69,30.09,29.82,7,1,13,0.62
2013-6-16,82.1,72.6,60.8,67.0,61.2,54.0,97,71,40,29.90,29.83,6,1,11,1.39
2013-6-17,83.4,69.1,57.7,64.0,58.4,54.0,94,71,42,29.96,29.85,10,2,21,0.00
2013-6-18,67.5,60.2,51.3,57.0,50.9,43.0,89,73,51,30.12,29.99,11,3,14,0.00
2013-6-19,72.7,62.4,44.5,53.0,47.7,42.0,91,61,44,30.18,30.10,5,1,9,0.00
2013-6-20,83.0,69.5,52.8,65.0,54.3,37.0,80,59,44,30.17,30.07,7,1,11,0.00
2013-6-21,74.4,69.4,65.2,69.0,64.3,57.0,96,84,69,30.12,29.86,4,1,17,0.81
2013-6-22,77.0,70.1,65.4,71.0,67.2,64.0,97,90,81,30.11,29.93,5,1,15,0.14
2013-6-23,85.1,74.9,63.3,74.0,68.1,62.0,95,80,66,30.01,29.86,5,1,9,0.14
2013-6-24,77.9,72.3,68.3,70.0,67.6,66.0,93,85,73,30.00,29.82,6,1,9,0.00
2013-6-25,80.1,70.6,65.1,73.0,67.9,64.0,97,91,77,29.94,29.81,6,1,16,0.21
2013-6-26,77.9,71.2,66.2,70.0,67.7,65.0,96,89,73,29.81,29.71,3,0,13,0.02
2013-6-27,84.3,72.9,64.0,73.0,67.8,62.0,98,85,59,29.77,29.67,5,1,13,0.01
2013-6-28,75.4,69.4,62.9,66.0,63.2,61.0,96,81,64,29.71,29.59,8,2,17,0.01
2013-6-29,71.7,65.1,61.6,62.0,59.9,56.0,96,84,60,29.83,29.61,11,3,19,0.01
2013-6-30,76.2,66.9,58.6,60.0,52.7,45.0,80,62,38,30.04,29.83,8,3,16,0.01
2013-7-1,76.5,67.4,58.2,56.0,49.4,44.0,71,54,39,30.11,30.04,9,2,16,0.01
2013-7-2,72.2,62.7,54.0,55.0,50.5,46.0,92,66,43,30.14,30.09,10,2,13,0.00
2013-7-3,67.9,63.2,59.2,63.0,59.2,53.0,93,87,77,30.09,30.04,5,1,7,0.01
2013-7-4,80.6,70.4,59.5,65.0,61.0,58.0,97,74,47,30.10,30.02,3,0,7,0.01
2013-7-5,82.2,74.1,61.3,67.0,63.0,59.0,91,70,54,30.08,29.99,4,1,9,0.00
2013-7-6,82.8,73.6,62.4,68.0,63.7,60.0,93,73,49,30.05,29.94,3,0,6,0.00
2013-7-7,84.7,74.4,68.0,73.0,68.4,65.0,93,83,60,29.98,29.90,3,0,5,0.00
2013-7-8,84.1,76.7,70.4,76.0,71.7,68.0,95,84,73,29.98,29.89,4,1,9,0.12
2013-7-9,82.1,73.9,66.8,75.0,70.8,65.0,96,90,77,29.99,29.81,4,1,8,0.31
2013-7-10,76.4,73.0,62.0,74.0,64.1,57.0,95,75,54,30.01,29.82,7,2,18,0.31
2013-7-11,78.2,67.0,55.5,62.0,56.6,52.0,95,71,50,30.12,30.02,6,1,9,0.00
2013-7-12,81.9,69.0,51.5,60.0,54.4,48.0,92,63,35,30.18,30.08,5,1,7,0.00
2013-7-13,80.7,70.6,55.8,64.0,58.9,53.0,95,68,46,30.18,30.11,7,1,10,0.00
2013-7-14,84.7,75.1,61.1,72.0,66.0,59.0,95,75,58,30.22,30.17,7,1,8,0.00
2013-7-15,88.5,76.7,65.6,76.0,70.7,64.0,96,82,63,30.27,30.21,7,1,9,0.00
2013-7-16,89.8,81.8,71.7,77.0,74.1,70.0,95,78,62,30.27,30.21,4,0,5,0.00
2013-7-17,90.3,80.5,74.3,77.0,74.4,72.0,92,82,62,30.27,30.14,4,1,7,0.11
2013-7-18,90.2,82.5,72.2,76.0,73.7,70.0,96,76,59,30.15,29.88,5,1,8,0.11
2013-7-19,88.4,82.5,74.2,74.0,71.4,63.0,81,70,56,29.88,29.71,6,2,13,0.00
2013-7-20,82.3,70.8,61.2,66.0,62.1,57.0,87,75,55,29.97,29.79,6,1,11,0.01
2013-7-21,80.0,68.0,61.4,69.0,61.2,55.0,96,79,63,29.98,29.88,8,2,13,0.76
2013-7-22,83.7,72.9,61.6,71.0,66.8,61.0,97,83,60,29.89,29.68,5,1,7,0.81
2013-7-23,72.1,67.1,56.5,65.0,58.6,53.0,92,75,58,30.00,29.69,8,2,13,0.04
2013-7-24,70.7,61.3,51.9,56.0,52.7,50.0,92,75,53,30.09,30.00,6,1,10,0.00
2013-7-25,76.2,65.8,50.0,63.0,57.4,48.0,95,75,59,30.10,29.98,3,1,7,0.00
2013-7-26,69.2,65.2,59.9,66.0,62.2,57.0,95,90,80,29.98,29.86,4,1,10,0.63
2013-7-27,59.5,55.7,51.9,57.0,49.8,47.0,94,81,67,29.94,29.88,8,2,15,0.02
2013-7-28,66.3,56.8,51.1,55.0,51.3,49.0,93,82,66,30.01,29.86,8,2,12,0.02
2013-7-29,71.6,61.2,54.9,60.0,54.9,51.0,90,80,62,30.21,30.02,6,1,9,0.00
2013-7-30,75.3,64.5,53.6,65.0,59.7,52.0,96,85,63,30.21,30.10,5,1,9,0.61
2013-7-31,75.1,49.6,61.4,67.0,24.9,-99.9,97,72,76,30.10,29.95,3,-231,12,0.08
2013-8-1,75.7,67.3,58.2,62.0,58.2,55.0,96,75,49,29.99,29.92,7,1,13,0.08
2013-8-2,77.9,68.9,57.3,67.0,60.4,55.0,95,76,54,29.95,29.85,5,1,11,0.03
2013-8-3,75.5,65.6,55.7,58.0,54.7,52.0,87,69,50,30.13,29.96,11,1,11,0.00
2013-8-4,72.6,63.8,55.8,59.0,56.2,52.0,94,77,53,30.24,30.13,6,1,9,0.00
2013-8-5,71.6,64.0,57.6,64.0,58.9,54.0,91,83,72,30.14,29.89,5,1,6,0.04
2013-8-6,80.6,69.6,62.5,71.0,61.1,-99.9,96,81,69,29.88,29.78,5,-34,7,0.04
2013-8-7,78.4,73.4,62.8,71.0,67.5,61.0,94,82,64,29.97,29.74,6,1,12,0.00
2013-8-8,73.8,64.4,56.7,62.0,56.4,48.0,96,78,48,30.05,29.97,6,1,8,0.00
2013-8-9,77.6,66.5,53.7,67.0,58.4,50.0,90,76,61,30.06,29.98,4,0,7,0.00
2013-8-10,74.5,65.3,53.7,63.0,57.0,52.0,95,76,50,30.15,30.07,4,0,7,0.00
2013-8-11,71.1,62.2,53.4,65.0,59.2,52.0,96,90,78,30.16,30.04,4,0,7,0.06
2013-8-12,79.2,58.2,62.1,68.0,36.6,-99.9,97,69,57,30.04,29.89,6,-164,13,0.01
2013-8-13,66.9,59.6,51.0,58.0,49.9,46.0,93,71,53,30.20,30.00,7,2,13,0.01
2013-8-14,70.3,59.7,48.4,54.0,50.4,45.0,94,73,51,30.25,30.16,6,1,10,0.00
2013-8-15,76.5,65.6,56.2,59.0,53.9,48.0,90,68,40,30.17,30.09,3,1,7,0.00
2013-8-16,78.1,65.0,53.9,61.0,55.6,52.0,96,74,45,30.21,30.14,3,0,8,0.00
2013-8-17,77.3,64.6,51.3,64.0,56.1,50.0,97,77,49,30.28,30.19,3,0,7,0.00
2013-8-18,78.0,66.5,51.8,65.0,57.3,50.0,97,74,52,30.25,30.11,4,0,6,0.00
2013-8-19,79.7,68.9,55.0,65.0,59.6,53.0,94,73,54,30.12,30.02,4,1,6,0.00
2013-8-22,-200.0,0.0,200.0,-99.9,-99.9,-99.9,0,0,100,30.13,30.05,0,-999,0,0.00
2013-8-23,77.5,51.3,57.3,65.0,16.0,-99.9,97,51,51,30.20,30.12,5,-272,9,0.00
2013-8-24,80.5,62.0,52.3,67.0,45.2,-99.9,96,70,58,30.27,30.18,4,-93,7,0.00
2013-8-25,86.7,69.4,67.7,71.0,48.2,-99.9,82,61,48,30.21,30.08,5,-104,8,0.00
2013-8-26,77.0,22.8,72.1,69.0,-48.4,-99.9,80,24,75,30.12,29.95,5,-690,9,0.00
2013-8-27,91.1,50.0,80.1,76.0,0.9,-99.9,81,39,60,29.97,29.77,3,-423,10,0.00
2013-8-28,82.2,57.8,65.7,75.0,30.2,-99.9,93,64,70,30.03,29.79,6,-233,10,0.00
2013-8-29,84.8,70.6,62.5,72.0,57.8,-99.9,97,74,55,30.08,29.97,7,-55,7,0.00
2013-8-30,89.8,67.9,66.4,77.0,54.1,-99.9,94,76,66,29.98,29.76,9,-88,25,0.50
2013-8-31,76.0,64.1,61.5,68.0,53.2,-99.9,94,80,75,29.88,29.80,3,-66,8,0.50
2013-9-1,81.1,61.9,60.2,73.0,48.6,-99.9,97,80,67,29.83,29.70,5,-104,17,0.29
2013-9-2,67.6,49.2,55.9,61.0,22.7,-99.9,96,64,69,30.02,29.82,5,-219,11,0.30
2013-9-3,72.1,58.6,49.2,58.0,48.9,-99.9,95,77,57,30.12,30.02,3,-31,6,0.00
2013-9-4,78.9,63.0,51.7,66.0,53.6,-99.9,96,79,59,30.14,30.05,5,-34,9,0.00
2013-9-5,68.1,60.5,51.4,62.0,48.4,-99.9,92,72,55,30.30,30.15,9,-34,13,0.00
2013-9-6,82.0,64.0,46.6,69.0,51.3,-99.9,97,73,61,30.25,29.99,4,-52,8,0.00
2013-9-7,78.0,67.3,68.0,72.0,55.8,-99.9,95,79,69,30.00,29.88,7,-67,16,0.53
2013-9-8,70.4,60.9,63.2,65.0,48.8,-99.9,92,81,78,30.07,29.97,9,-87,12,0.53
2013-9-9,87.2,71.6,65.9,78.0,60.4,-99.9,94,79,71,29.99,29.78,4,-61,9,0.00
2013-9-10,91.2,78.0,77.2,73.0,54.7,-99.9,73,53,43,29.92,29.79,6,-74,15,0.00
2013-9-11,80.9,59.1,68.1,68.0,32.6,-99.9,91,62,64,30.07,29.92,6,-204,7,0.00
2013-9-12,72.1,61.8,55.3,65.0,49.7,-99.9,96,75,55,30.14,29.96,8,-52,15,0.00
2013-9-13,61.3,50.9,45.6,48.0,36.5,-99.9,88,68,51,30.24,30.14,8,-53,12,0.00
2013-9-14,67.9,53.0,41.6,51.0,38.6,-99.9,97,69,50,30.21,30.03,4,-53,8,0.00
2013-9-15,60.0,48.7,53.2,56.0,32.3,-99.9,96,76,63,30.26,30.02,7,-128,15,0.36
2013-9-16,60.7,48.3,42.0,50.0,35.1,-99.9,92,73,60,30.42,30.26,7,-68,13,0.36
2013-9-17,66.3,52.3,40.0,56.0,41.0,-99.9,98,77,65,30.39,30.15,6,-59,9,0.01
2013-9-18,76.2,60.3,57.7,68.0,47.6,-99.9,94,79,74,30.14,29.91,6,-88,9,0.01
2013-9-19,69.2,20.8,67.2,67.0,-49.2,-99.9,94,28,89,29.92,29.74,2,-692,4,0.01
2013-9-21,54.0,47.5,45.8,48.0,31.7,-99.9,92,79,80,29.97,29.90,0,-50,1,0.00
2013-9-22,60.3,48.4,43.0,47.0,36.7,-99.9,94,74,54,30.13,29.98,4,-46,8,0.00
2013-9-23,62.7,48.3,40.6,53.0,34.9,-99.9,97,76,65,30.17,30.09,5,-82,13,0.00
2013-9-24,67.0,50.2,47.4,57.0,32.6,-99.9,98,73,60,30.11,30.00,7,-110,12,0.00
2013-9-25,66.3,53.4,47.2,60.0,43.9,-99.9,98,80,64,30.03,29.99,8,-47,10,0.00
2013-9-26,72.1,54.2,47.6,62.0,38.6,-99.9,98,72,46,30.12,30.02,5,-88,10,0.00
2013-9-27,77.4,57.1,45.0,58.0,40.2,-99.9,98,68,48,30.19,30.08,8,-80,12,0.00
2013-9-28,79.2,65.0,54.0,65.0,48.2,-99.9,95,66,54,30.07,29.84,7,-72,17,0.27
2013-9-29,66.2,50.8,46.7,53.0,31.7,-99.9,96,67,44,30.08,29.95,4,-110,8,0.28
2013-9-30,70.3,53.7,43.4,52.0,34.9,-99.9,96,63,50,30.03,29.86,5,-84,9,0.00
2013-10-1,78.9,64.3,56.3,64.0,50.0,-99.9,88,70,57,29.96,29.84,7,-61,10,0.00
2013-10-2,73.0,57.1,50.4,57.0,35.2,-99.9,97,59,30,30.14,29.96,4,-86,9,0.00
2013-10-3,73.1,57.3,55.3,67.0,42.0,-99.9,96,78,78,30.00,29.85,7,-124,11,0.35
2013-10-4,64.9,47.6,58.9,64.0,23.2,-99.9,98,74,95,30.02,29.88,9,-237,13,0.09
2013-10-5,69.7,56.8,59.7,69.0,45.1,-99.9,99,87,98,29.98,29.74,3,-113,10,0.52
2013-10-6,61.8,47.9,45.5,61.0,31.1,-99.9,97,69,58,29.76,29.68,6,-101,12,0.01
2013-10-7,59.4,43.2,43.4,47.0,30.2,-99.9,94,79,63,30.12,29.73,5,-97,10,0.01
2013-10-8,73.3,55.1,40.7,56.0,38.9,-99.9,99,68,41,30.21,30.12,5,-67,9,0.00
2013-10-9,68.3,49.3,45.5,53.0,33.1,-99.9,91,71,49,30.25,30.16,3,-104,8,0.00
2013-10-10,70.9,50.6,42.7,59.0,31.4,-99.9,98,68,49,30.20,30.08,7,-123,9,0.00
2013-10-11,72.6,55.3,46.9,60.0,39.7,-99.9,98,71,58,30.09,29.98,12,-88,16,0.00
2013-10-12,65.8,54.7,49.4,62.0,39.2,-99.9,96,71,56,30.17,29.94,5,-87,11,0.25
2013-10-13,57.7,43.1,38.2,45.0,22.9,-99.9,93,64,49,30.45,30.18,8,-122,13,0.25
2013-10-14,58.4,41.6,36.5,48.0,21.5,-99.9,97,68,59,30.47,30.19,9,-144,14,0.00
2013-10-15,58.9,43.8,46.7,58.0,24.7,-99.9,97,75,82,30.19,29.77,8,-167,13,0.34
2013-10-16,52.7,38.7,45.9,50.0,16.6,-99.9,96,74,87,29.96,29.81,7,-203,10,0.34
2013-10-17,49.7,37.0,41.6,46.0,14.0,-99.9,96,70,76,29.95,29.85,5,-201,9,0.08
2013-10-18,48.2,37.7,35.6,43.0,21.1,-99.9,94,74,79,29.98,29.85,7,-127,15,0.08
2013-10-19,49.6,37.2,38.9,39.0,16.7,-99.9,92,67,60,29.95,29.78,7,-149,14,0.02
2013-10-20,49.4,36.7,34.1,47.0,17.2,-99.9,97,73,62,29.90,29.76,5,-165,10,0.07
2013-10-21,47.2,33.2,33.0,44.0,10.3,-99.9,91,63,62,29.98,29.78,13,-163,16,0.08
2013-10-22,43.1,31.1,28.9,32.0,10.3,-99.9,86,64,60,30.02,29.95,6,-142,13,0.00
2013-10-23,41.4,31.0,29.4,30.0,9.6,-99.9,88,62,49,30.06,29.98,8,-135,11,0.00
2013-10-24,41.4,32.2,33.3,30.0,11.8,-99.9,81,62,58,30.34,30.05,7,-124,13,0.00
2013-10-25,48.7,34.7,29.6,31.0,8.7,-99.9,89,53,45,30.42,29.96,13,-151,20,0.00
2013-10-26,49.2,39.4,41.2,37.0,12.6,-99.9,72,49,47,30.09,29.81,17,-139,24,0.00
2013-10-27,52.4,35.1,32.7,33.0,5.7,-99.9,87,51,44,30.08,29.95,9,-192,15,0.00
2013-10-28,43.1,36.1,35.4,36.0,19.2,-99.9,81,67,69,30.48,30.08,13,-98,16,0.00
2013-10-29,43.8,30.8,34.3,42.0,6.7,-99.9,95,68,79,30.46,30.19,5,-213,7,0.00
2013-10-30,54.6,39.3,41.5,54.0,18.0,-99.9,97,76,94,30.19,29.78,7,-203,12,0.00
2013-10-31,60.5,41.3,43.8,60.0,15.7,-99.9,98,72,94,29.78,29.23,12,-248,17,0.60
2013-11-1,44.8,34.6,42.7,43.0,12.7,-99.9,95,74,90,29.76,29.32,8,-203,18,0.04
2013-11-2,44.7,33.0,38.2,41.0,11.0,-99.9,96,73,77,30.20,29.77,6,-198,12,0.03
2013-11-3,49.2,35.1,30.2,40.0,12.4,-99.9,98,66,57,30.35,30.20,8,-178,11,0.03
2013-11-4,54.1,43.1,43.0,46.0,23.1,-99.9,92,65,62,30.30,30.10,11,-127,18,0.00
2013-11-5,54.0,41.2,48.4,50.0,18.8,-99.9,95,71,80,30.29,29.93,11,-196,19,0.06
2013-11-6,55.0,31.6,31.5,54.0,6.4,-99.9,96,68,70,30.19,29.75,8,-223,16,0.12
2013-11-7,39.2,28.5,30.4,33.0,4.6,-99.9,88,65,71,30.28,30.20,7,-193,11,0.12
2013-11-8,45.6,31.2,25.8,34.0,7.1,-99.9,96,62,65,30.36,29.91,6,-182,16,0.00
2013-11-9,51.2,38.2,39.9,41.0,12.8,-99.9,82,57,58,30.08,29.80,15,-169,23,0.00
2013-11-10,45.9,33.9,37.4,33.0,6.1,-99.9,74,53,54,30.35,30.09,11,-186,15,0.00
2013-11-11,41.4,22.2,22.8,33.0,-9.2,-99.9,94,57,69,30.60,30.09,7,-270,16,0.08
2013-11-12,28.8,19.4,19.4,18.0,-7.7,-99.9,84,56,54,30.77,30.61,8,-202,14,0.08
2013-11-13,39.4,26.5,19.0,21.0,-1.7,-99.9,83,48,41,30.64,30.14,14,-158,22,0.00
2013-11-14,45.1,33.7,33.9,30.0,5.6,-99.9,67,49,53,30.13,29.94,13,-163,17,0.00
2013-11-15,52.8,35.8,38.3,36.0,7.8,-99.9,86,53,52,29.98,29.92,6,-187,10,0.00
2013-11-16,57.9,37.3,38.1,55.0,8.8,-99.9,97,68,86,29.95,29.54,9,-253,18,0.09
2013-11-17,62.7,30.7,39.6,61.0,-8.9,-99.9,98,57,80,29.67,29.10,15,-378,26,0.26
2013-11-18,39.5,23.5,26.3,35.0,-9.5,-99.9,83,54,69,30.31,29.67,18,-274,28,0.04
2013-11-19,37.8,23.2,20.7,28.0,-6.7,-99.9,94,57,60,30.44,30.31,7,-244,9,0.05
2013-11-20,35.1,34.6,34.3,34.0,33.2,33.0,95,94,94,30.20,30.18,2,1,4,0.24
2013-11-21,43.6,32.0,35.4,41.0,9.3,-99.9,97,72,86,30.28,30.17,7,-208,8,0.02
2013-11-22,38.4,23.4,24.7,36.0,-5.1,-99.9,93,61,71,30.52,30.27,9,-242,14,0.01
2013-11-23,24.3,13.7,11.3,18.0,-14.9,-99.9,78,52,55,30.78,30.46,12,-206,20,0.01
2013-11-24,24.5,14.8,9.4,9.0,-15.8,-99.9,82,47,44,30.78,30.36,16,-201,19,0.00
2013-11-25,28.6,19.9,21.6,26.0,-6.1,-99.9,93,65,53,30.36,30.10,12,-223,17,0.00
2013-11-26,30.5,19.2,12.2,26.0,-6.6,-99.9,89,58,56,30.26,30.08,8,-192,15,0.00
2013-11-27,24.8,14.9,10.1,15.0,-13.4,-99.9,86,56,60,30.32,30.25,8,-219,13,0.00
2013-11-28,26.7,16.5,11.8,18.0,-11.9,-99.9,89,58,67,30.58,30.25,6,-230,9,0.00
2013-11-29,29.8,18.8,8.8,24.0,-6.5,-99.9,93,62,59,30.72,30.45,5,-203,9,0.00
2013-11-30,44.6,29.6,28.3,33.0,4.5,-99.9,89,61,61,30.45,30.09,4,-192,9,0.00
2013-12-1,39.2,26.1,25.9,31.0,1.8,-99.9,93,65,65,30.18,30.05,6,-199,10,0.00
2013-12-2,38.6,26.5,21.7,35.0,3.7,-99.9,96,70,74,30.04,29.84,9,-198,15,0.02
2013-12-3,39.3,27.1,33.1,39.0,-1.3,-99.9,98,70,95,29.83,29.74,9,-277,15,0.05
2013-12-4,49.8,21.0,41.3,50.0,-32.6,-99.9,99,46,98,29.81,29.50,8,-533,13,0.01
2013-12-5,23.3,14.5,15.2,18.0,-20.0,-99.9,81,51,64,30.34,29.64,10,-287,18,0.01
2013-12-6,15.7,8.7,7.2,9.0,-20.3,-99.9,81,57,66,30.63,30.32,8,-236,14,0.00
2013-12-7,14.0,6.4,1.5,4.0,-18.7,-99.9,92,60,62,30.79,30.64,7,-196,13,0.00
2013-12-8,24.3,12.5,4.3,23.0,-19.1,-99.9,95,62,74,30.72,30.02,8,-297,15,0.00
2013-12-9,24.0,9.6,-3.1,23.0,-14.2,-99.9,95,66,69,30.25,29.98,9,-199,22,0.00
2013-12-10,18.0,7.3,-4.3,11.0,-18.5,-99.9,87,61,67,30.36,30.03,17,-206,24,0.00
2013-12-11,12.0,3.6,-2.8,9.0,-21.2,-99.9,88,58,62,30.62,30.34,10,-183,16,0.00
2013-12-12,14.6,7.4,-4.4,10.0,-19.1,-99.9,89,59,68,30.61,30.28,10,-212,14,0.00
2013-12-13,23.2,15.2,12.0,19.0,-9.9,-99.9,88,66,80,30.30,30.25,9,-219,14,0.00
2013-12-14,25.4,18.1,18.1,24.0,-2.8,-99.9,94,74,88,30.25,29.99,11,-193,15,0.00
2013-12-15,19.3,7.8,1.1,18.0,-18.5,-99.9,93,58,66,30.22,29.96,13,-205,16,0.00
2013-12-16,17.0,8.5,-1.0,10.0,-14.7,-99.9,88,62,54,30.26,30.11,5,-163,9,0.00
2013-12-17,31.7,24.1,19.9,26.0,5.2,-99.9,93,68,69,30.11,29.97,9,-117,15,0.04
2013-12-18,33.2,21.6,12.2,27.0,-5.3,-99.9,85,56,47,30.17,29.83,10,-193,16,0.04
2013-12-19,32.3,24.7,24.2,30.0,5.8,-99.9,95,74,80,30.04,29.85,14,-161,17,0.00
2013-12-20,30.1,21.5,23.7,29.0,-0.3,-99.9,95,75,93,29.94,29.85,10,-204,13,0.00
2013-12-21,31.2,21.1,23.4,30.0,-4.7,-99.9,96,72,93,29.95,29.74,13,-247,19,0.00
2013-12-22,30.5,16.4,18.2,29.0,-13.9,-99.9,96,66,92,30.17,29.72,8,-291,16,0.00
2013-12-23,19.4,7.7,-0.2,18.0,-14.5,-99.9,94,71,86,30.48,30.17,8,-199,13,0.00
2013-12-24,14.3,4.7,-5.9,10.0,-18.0,-99.9,90,69,81,30.64,30.42,8,-200,11,0.00
2013-12-25,21.9,14.9,11.2,20.0,-9.3,-99.9,93,70,89,30.41,30.14,5,-223,11,0.00
2013-12-26,24.7,16.9,11.9,23.0,-4.2,-99.9,93,72,81,30.32,30.14,7,-187,13,0.00
2013-12-27,36.7,24.7,11.9,31.0,4.6,-99.9,96,72,79,30.34,30.05,8,-169,15,0.17
2013-12-28,42.9,30.9,28.6,34.0,4.6,-99.9,91,60,69,30.10,29.80,9,-204,15,0.45
2013-12-29,40.6,13.7,-0.8,31.0,-16.2,-99.9,90,57,69,30.29,29.76,11,-249,17,0.45
2013-12-30,1.6,-0.4,-5.4,-3.0,-24.2,-99.9,84,59,55,30.42,30.29,6,-176,13,0.00
2013-12-31,6.2,3.7,0.8,3.0,-17.0,-99.9,86,68,73,30.46,30.30,6,-168,12,0.00
2014-1-1,12.7,6.7,1.0,9.0,-19.1,-99.9,92,63,67,30.46,30.37,7,-220,10,0.00
2014-1-2,12.0,4.9,-2.8,6.0,-26.3,-99.9,86,56,71,30.52,30.32,7,-267,12,0.00